Home > Weather > Timișoara > Past weeks

Flag for Romania Weather for the Past 2 Weeks in Timișoara, Romania

Now
57 °F

Mostly cloudy.


Feels Like: 57 °F
Forecast: 46 / 70 °F
Wind: 5 mph from Southeast

Location: Timisoara Airport

Current Time: Apr 30, 2016 at 3:16:46 PM

Latest Report: Apr 30, 2016 at 2:30 PM


Visibility: N/A

Pressure: 30.12 "Hg

Humidity: 82%

Dew Point: 52 °F

Location of TimișoaraLocation

Historic Weather in Timișoara — Graph

°F

Timișoara Temperature Yesterday

Maximum temperature yesterday: 54 °F (at 2:00 PM)
Minimum temperature yesterday: 48 °F (at 12:00 AM)
Average temperature yesterday: 51 °F

High & Low Weather Summary for the Past Weeks

 TemperatureHumidityPressure
High81 °F (Apr 17, 2:00 PM)100% (Apr 16, 2:30 AM)30.33 "Hg (Apr 16, 2:30 AM)
Low32 °F (Apr 21, 5:30 AM)19% (Apr 16, 6:00 PM)29.47 "Hg (Apr 24, 8:00 AM)
Average54 °F72%29.92 "Hg
* Reported Apr 15 2:30 PM — Apr 30 2:00 PM, Timișoara, Weather by CustomWeather, © 2016

Note: Actual official high and low records may vary slightly from our data, if they occured in-between our weather recording intervals... More about our weather records

Advertising

Timișoara Weather History for the Previous 24 Hours

Scroll right to see more
 ConditionsComfort  
Time TempWeatherWind HumidityBarometerVisibility
2:00 PM
Sat, Apr 30
57 °FMostly cloudy.3 mph82%30.12 "HgN/A
1:30 PM57 °FMostly cloudy.6 mph88%30.12 "HgN/A
1:00 PM57 °FOvercast.1 mph77%30.12 "HgN/A
12:30 PM55 °FMostly cloudy.1 mph88%30.15 "HgN/A
12:00 PM55 °FBroken clouds.1 mph88%30.12 "HgN/A
11:30 AM55 °FPartly sunny.1 mph88%30.15 "Hg5 mi
11:00 AM52 °FOvercast.2 mph100%30.15 "Hg5 mi
10:30 AM52 °FOvercast.2 mph94%30.12 "Hg4 mi
10:00 AM50 °FLight rain. Fog.3 mph100%30.12 "Hg3 mi
9:30 AM50 °FFog.2 mph100%30.12 "Hg2 mi
9:00 AM50 °FFog.3 mph94%30.12 "Hg2 mi
8:30 AM48 °FDrizzle. Fog.3 mph100%30.12 "Hg1 mi
8:00 AM48 °FDrizzle. Fog.3 mph100%30.12 "Hg1 mi
7:30 AM48 °FDrizzle. Fog.3 mph100%30.12 "Hg1 mi
7:00 AM48 °FDrizzle. Fog.5 mph100%30.12 "Hg1 mi
6:30 AM48 °FDrizzle. Fog.5 mph100%30.12 "Hg1 mi
6:00 AM48 °FDrizzle. Fog.3 mph100%30.09 "Hg1 mi
5:30 AM48 °FDrizzle. Fog.3 mph100%30.09 "Hg1 mi
5:00 AM48 °FFog.3 mph100%30.09 "Hg3 mi
4:30 AM48 °FFog.3 mph100%30.09 "Hg3 mi
3:30 AM50 °FFog.3 mph100%30.09 "Hg3 mi
2:30 AM50 °FFog.3 mph100%30.09 "Hg3 mi
2:00 AM50 °FFog.3 mph100%30.09 "Hg3 mi
1:30 AM50 °FFog.5 mph100%30.09 "Hg2 mi
1:00 AM50 °FFog.8 mph100%30.09 "Hg2 mi
12:30 AM50 °FFog.6 mph100%30.09 "Hg1 mi
12:00 AM50 °FFog.7 mph100%30.09 "Hg1 mi
11:30 PM
Fri, Apr 29
50 °FFog.6 mph100%30.09 "Hg1 mi
11:00 PM50 °FFog.5 mph100%30.09 "Hg2 mi
10:30 PM50 °FFog.6 mph100%30.09 "Hg2 mi
10:00 PM50 °FFog.5 mph100%30.09 "Hg2 mi
9:30 PM50 °FFog.6 mph100%30.09 "Hg2 mi
9:00 PM50 °FDrizzle. Fog.6 mph100%30.09 "Hg1 mi
8:30 PM52 °FLight rain. More clouds than sun.6 mph94%30.09 "Hg4 mi
8:00 PM52 °FMostly cloudy.7 mph100%30.07 "Hg5 mi
7:30 PM52 °FMostly cloudy.8 mph100%30.07 "Hg5 mi
7:00 PM52 °FPartly sunny.8 mph100%30.07 "HgN/A
6:30 PM52 °FPartly sunny.7 mph100%30.07 "HgN/A
6:00 PM54 °FPartly sunny.8 mph94%30.07 "HgN/A
5:30 PM54 °FPartly sunny.8 mph100%30.07 "HgN/A
5:00 PM54 °FPartly sunny.6 mph94%30.07 "HgN/A
4:30 PM54 °FScattered clouds.6 mph100%30.07 "Hg5 mi
4:00 PM54 °FBroken clouds.7 mph100%30.07 "Hg6 mi
3:30 PM54 °FBroken clouds.6 mph100%30.07 "Hg5 mi
3:00 PM54 °FBroken clouds.6 mph100%30.07 "Hg5 mi
Weather by CustomWeather, © 2016

See weather overviewHow to use our weather pages